Theta_e
274 274 273 273 272 272 272 271 271 271 271 270 270 270 270 271 271 270 270 270 269 269 269 269 269 268 267 267 266 266 265 265 265 265 264 264 264 264 263 263 264 266 267 267 267 267 268 267 266 266 266 265 265 265 264 265 265 265 266 267 267 267 267
274 274 273 273 272 271 271 271 271 271 271 270 270 270 270 270 271 270 270 269 269 269 268 268 268 268 267 267 266 265 265 265 265 264 264 263 263 263 263 263 263 265 266 266 266 266 267 267 266 266 266 265 264 264 264 265 265 265 266 266 266 266 266
275 274 273 273 272 271 271 271 271 271 271 271 270 271 270 270 270 270 269 269 268 268 268 268 268 267 267 266 266 265 265 265 265 264 264 263 263 263 263 263 262 263 264 265 265 265 265 266 265 265 265 264 264 264 264 265 265 265 265 266 266 265 266
274 274 273 273 272 271 271 270 270 270 270 271 271 271 270 270 269 269 269 269 268 268 268 268 267 267 267 266 266 266 265 265 265 264 264 263 263 262 262 262 261 262 262 263 264 264 264 264 264 264 265 264 264 264 264 264 265 265 265 266 266 265 265
274 274 273 272 272 271 271 271 270 270 270 270 270 270 270 269 269 269 269 269 268 268 268 267 267 267 267 266 266 265 265 265 265 265 264 263 263 262 262 261 261 261 261 261 262 262 263 263 263 264 265 264 263 263 263 264 264 264 264 265 265 264 264
274 273 273 272 272 272 272 271 270 270 270 270 270 269 269 269 269 268 268 268 268 268 267 267 267 267 266 266 266 266 266 265 265 265 264 264 263 262 261 261 260 260 260 260 261 261 261 262 262 263 264 264 263 263 263 263 263 263 264 264 264 264 264
274 273 273 272 272 272 272 271 270 270 270 269 269 269 269 268 268 268 268 267 267 267 267 267 266 266 266 266 266 266 266 265 265 264 264 264 263 262 261 260 260 260 259 259 260 260 261 261 262 262 263 263 263 262 262 263 263 264 264 264 264 263 263
273 273 272 272 272 272 271 270 270 269 269 269 269 269 268 268 268 267 267 267 267 267 266 266 266 266 266 266 266 266 265 265 265 264 264 264 263 262 261 260 260 259 260 260 260 260 261 261 262 262 263 263 263 263 263 263 263 264 264 264 264 263 263
273 272 272 271 271 271 270 270 269 269 269 269 268 268 268 267 267 267 267 266 266 266 266 266 266 266 266 266 266 265 265 265 264 264 263 263 263 262 261 260 259 260 261 261 261 261 262 262 263 263 263 264 264 264 264 264 264 264 264 264 263 263 263
272 271 271 271 271 270 269 269 269 269 269 269 269 268 268 267 266 266 266 266 266 266 266 266 266 266 266 266 265 265 265 265 265 264 263 263 263 263 262 260 259 260 261 262 262 262 262 263 263 264 264 264 264 264 264 264 263 263 263 263 263 263 263
271 271 271 270 270 270 269 269 269 270 269 268 268 268 267 267 266 266 266 266 265 265 265 266 266 265 265 265 265 265 265 265 265 264 264 263 263 263 262 261 260 261 261 262 262 263 263 263 264 264 264 264 264 264 263 263 263 263 263 263 263 263 263
270 270 270 270 270 270 269 269 270 269 269 268 267 267 266 266 266 266 266 265 265 265 265 265 265 265 265 265 265 265 265 265 265 264 264 263 263 263 262 262 261 261 261 262 262 263 263 263 263 263 263 263 263 263 263 263 263 262 262 262 262 262 263
270 270 270 269 269 269 269 269 269 269 268 267 267 266 266 266 266 266 265 265 265 265 265 265 265 264 264 265 265 265 265 265 264 264 263 263 263 263 262 262 262 262 262 262 262 262 262 263 263 263 263 263 263 263 263 262 262 262 262 261 262 262 262
269 269 269 269 269 269 269 269 269 269 268 267 267 267 267 266 266 266 265 265 265 265 265 265 265 264 264 264 265 265 265 265 264 264 263 263 262 262 262 262 262 262 262 261 261 262 262 262 262 262 262 263 262 262 261 261 261 262 261 261 261 261 261
268 268 269 269 269 268 268 268 269 269 267 266 267 268 268 268 267 266 266 266 265 265 265 265 265 264 264 264 264 265 265 265 264 263 263 263 262 262 262 262 262 263 262 261 261 261 262 262 262 262 262 262 262 261 262 262 262 262 261 261 261 261 260
268 268 268 268 268 267 267 268 268 268 267 266 267 268 269 268 268 267 267 266 266 266 266 265 265 265 264 264 264 264 264 264 264 263 263 262 262 262 262 262 262 263 262 262 262 262 262 261 262 262 262 262 262 263 263 263 262 261 260 260 260 261 261
267 268 268 267 267 267 267 267 268 267 267 266 267 268 269 268 268 268 267 267 266 266 266 265 265 265 265 265 265 265 264 264 264 263 263 262 262 262 262 262 262 262 262 262 262 263 263 263 263 263 263 264 264 264 264 262 261 261 261 261 261 261 262
267 267 267 267 267 267 267 267 267 267 267 266 266 267 268 268 268 267 267 267 266 266 265 265 265 265 265 265 265 265 264 264 264 263 263 262 262 262 261 262 262 262 261 261 261 262 262 263 263 264 264 264 265 265 264 262 260 260 261 261 261 261 261
266 266 266 266 266 267 267 267 267 267 267 266 266 267 267 267 267 267 266 266 266 265 265 265 265 265 265 264 264 264 264 264 263 263 262 262 261 261 261 261 261 261 261 261 260 261 261 261 262 262 262 262 262 263 263 262 260 260 260 260 260 261 261
266 265 265 265 266 266 266 266 266 266 267 266 266 266 267 267 266 266 266 265 265 265 264 264 264 265 264 264 264 264 264 263 263 263 262 261 261 261 261 261 261 261 261 260 260 260 260 260 260 260 260 260 260 260 261 261 260 259 259 259 260 260 260
265 265 265 265 265 265 265 265 266 266 266 266 266 266 266 267 266 265 265 265 264 264 264 264 264 264 264 264 264 264 263 263 263 262 262 262 261 261 261 261 261 261 261 260 260 260 260 260 260 260 259 259 259 259 259 259 259 259 259 259 259 259 259
265 264 264 264 264 264 264 265 265 265 266 266 265 265 265 266 266 265 265 264 264 263 263 263 263 263 264 264 264 263 263 262 262 262 263 262 262 262 262 261 261 261 261 261 261 261 261 261 261 260 260 260 259 259 258 258 258 258 258 258 258 258 258
264 264 263 263 263 263 263 264 265 265 265 265 265 265 264 264 265 264 264 264 263 263 263 263 263 263 263 263 263 262 262 261 261 261 262 262 262 262 262 262 261 261 261 261 262 261 261 261 261 260 260 260 260 259 259 258 257 257 257 257 257 256 256
264 263 263 263 262 262 262 263 264 265 265 265 265 265 264 264 263 263 263 263 263 263 262 262 262 262 262 262 262 261 261 260 260 260 260 260 261 261 261 261 261 261 261 261 261 261 261 261 260 260 260 260 260 259 258 257 257 256 256 255 255 255 255
263 263 263 263 262 262 262 263 264 264 265 265 264 264 264 263 263 263 262 262 261 261 261 261 261 261 261 261 261 260 259 259 259 259 259 259 259 259 259 259 260 260 260 260 260 260 260 260 260 259 259 259 258 258 257 257 256 255 255 255 254 254 254
263 263 262 262 262 262 262 262 263 263 264 264 264 263 263 263 262 262 261 261 260 260 260 260 261 261 261 260 260 259 258 258 258 258 258 258 258 258 259 259 259 259 260 260 260 260 259 259 259 259 258 258 257 256 256 256 256 255 255 254 254 254 254
263 262 262 262 262 262 262 262 262 262 263 264 263 263 263 262 262 261 260 259 259 259 259 259 260 260 260 260 259 258 258 258 258 258 258 258 258 258 258 258 259 259 259 259 259 259 259 258 258 258 257 257 256 256 256 256 255 255 255 255 254 254 254
263 262 262 262 262 262 262 262 261 262 263 264 264 263 263 262 262 261 259 259 258 258 258 258 258 259 259 258 258 258 257 258 258 258 258 258 258 258 258 258 258 258 258 258 258 258 258 258 257 257 257 257 256 256 256 255 255 255 255 255 254 254 254
263 263 263 263 262 262 262 262 262 264 265 265 265 264 263 262 262 261 260 260 260 259 258 258 258 258 258 258 257 257 258 258 258 258 258 258 258 258 258 258 257 257 257 257 257 257 257 257 257 257 256 256 256 256 256 255 255 255 254 254 254 254 254
263 263 263 262 262 263 263 263 264 265 265 264 263 263 262 262 262 261 261 260 260 258 258 258 258 258 258 258 258 258 258 258 258 258 258 258 257 257 257 257 257 257 257 257 257 257 257 257 257 256 256 256 256 256 256 255 255 254 254 254 254 254 254
262 262 262 262 262 263 263 264 264 263 263 262 262 262 261 261 260 260 260 259 259 258 257 258 258 258 258 258 258 258 258 258 258 258 258 258 257 257 257 257 256 256 256 256 256 256 256 256 256 256 256 256 256 256 255 255 255 254 254 254 254 254 254
261 262 262 262 262 263 263 263 263 263 262 261 261 260 260 260 259 259 259 258 258 258 258 258 258 259 259 259 259 259 259 259 258 258 258 258 258 258 257 257 257 256 256 256 256 256 256 256 256 256 255 255 255 255 255 255 255 255 254 254 254 254 254
261 261 262 262 262 262 262 263 263 263 262 261 260 260 259 259 259 258 258 258 258 258 259 259 259 259 259 259 259 259 259 259 259 259 258 258 258 258 258 258 257 256 256 255 255 255 255 255 255 255 255 255 255 255 255 255 255 255 254 254 254 254 254
261 262 262 262 262 262 262 262 261 261 261 261 260 259 259 258 258 258 258 258 258 259 259 259 259 260 259 259 259 259 259 259 259 258 258 258 258 258 258 257 257 256 255 255 255 255 255 255 255 255 255 255 254 254 254 254 254 254 254 254 254 254 254
261 262 262 261 261 261 261 260 260 260 260 260 259 259 258 258 258 258 258 258 258 258 259 259 259 259 259 259 259 259 259 259 258 258 258 258 258 257 257 257 256 256 255 255 255 255 255 255 255 255 254 254 254 254 254 254 254 254 254 254 254 254 254
261 260 260 260 261 260 260 260 260 260 260 259 259 258 257 257 257 258 258 258 258 258 258 258 258 258 259 259 258 258 258 258 258 257 257 257 257 257 257 256 256 256 255 255 255 255 255 255 254 254 254 254 254 254 254 254 254 254 254 254 254 254 254
Wind_Speed
37 37 37 37 38 39 39 38 37 36 35 34 33 31 30 29 27 26 25 24 24 23 22 21 21 20 20 19 19 19 18 18 18 18 17 16 14 14 15 16 14 11 13 19 23 24 26 26 24 27 27 24 24 23 22 24 27 28 29 28 26 26 26
38 38 37 38 39 39 40 39 39 37 36 35 34 32 31 30 29 28 27 26 26 25 23 23 23 22 21 21 20 21 20 20 20 20 20 20 19 16 16 18 18 14 12 17 22 24 27 28 26 27 26 22 21 23 25 27 29 29 28 27 25 26 26
39 39 38 39 39 40 40 40 39 38 38 36 35 33 32 31 30 29 29 28 27 26 25 24 25 24 23 22 22 23 23 22 22 23 23 23 22 21 20 20 21 19 14 14 20 24 28 29 27 26 25 23 24 27 28 29 29 28 27 28 27 26 26
40 40 39 39 40 40 40 40 40 39 38 37 36 35 33 32 31 31 30 30 29 27 26 26 26 26 24 23 24 25 25 25 24 25 25 25 24 24 23 23 24 23 19 14 16 21 26 27 26 28 29 28 28 29 29 29 28 27 28 29 27 25 26
41 41 41 41 41 40 40 41 40 40 38 38 37 35 34 33 33 32 31 31 30 28 27 27 27 27 25 24 26 26 26 26 26 26 26 27 26 25 26 25 25 24 20 17 16 18 24 28 28 30 33 30 27 26 26 25 24 25 28 29 26 25 25
43 43 42 42 41 41 41 41 41 40 40 39 38 36 35 34 33 33 32 31 30 29 28 28 28 27 26 26 27 28 28 27 27 27 27 27 27 26 26 26 25 23 19 16 16 17 20 25 26 27 29 27 22 20 21 21 21 22 23 23 23 23 26
44 44 43 42 42 41 41 41 41 41 40 39 38 37 36 35 34 33 32 31 31 30 30 29 29 28 28 29 29 29 28 28 27 28 28 28 28 26 26 25 24 22 17 13 14 16 17 19 21 22 24 23 19 17 19 18 18 17 15 15 16 20 25
44 44 43 42 42 41 41 41 41 41 40 39 38 37 36 35 34 33 32 32 32 31 31 30 30 30 30 30 30 28 28 28 28 28 28 28 28 27 27 26 22 18 16 14 14 15 15 15 17 18 19 17 15 15 15 13 13 14 14 14 16 18 23
44 44 43 42 42 41 41 42 42 42 41 39 38 37 36 35 33 33 32 32 32 32 31 31 31 31 31 30 30 28 28 28 28 29 28 28 28 27 29 27 21 17 16 15 15 15 13 13 15 16 15 13 13 13 12 10 12 15 15 16 18 18 21
44 44 44 43 43 42 42 43 43 42 40 38 37 36 35 34 33 32 32 32 32 32 32 32 31 32 31 30 29 28 29 29 29 29 29 28 28 28 29 27 22 18 17 16 14 14 13 13 15 15 14 14 14 13 12 12 13 15 15 15 16 17 16
45 45 44 44 44 44 44 44 43 41 39 37 36 36 34 33 32 32 32 33 33 32 32 32 32 32 32 31 30 30 30 30 31 30 29 28 28 29 29 28 25 21 19 16 15 14 12 14 16 15 14 14 14 13 12 13 12 14 15 13 14 15 12
45 45 45 45 45 44 45 44 42 40 38 37 35 34 34 33 32 32 32 32 33 32 32 32 32 32 32 32 30 30 31 31 31 30 28 27 27 27 29 30 29 26 21 16 15 15 15 16 17 15 14 15 14 13 12 13 13 15 16 15 15 16 14
45 45 45 45 45 45 44 43 41 39 38 36 34 32 32 32 31 31 32 32 32 32 31 32 32 31 32 32 31 31 32 31 30 28 26 25 25 26 28 30 31 31 27 21 16 15 17 19 18 16 16 15 14 12 11 12 15 15 16 18 19 19 17
45 45 45 46 45 45 44 43 41 39 38 36 32 29 29 30 30 30 31 31 31 31 31 32 32 31 30 30 30 31 32 31 28 26 25 26 27 29 30 31 31 33 33 30 26 23 23 23 21 19 18 16 14 16 16 16 18 19 19 20 19 18 18
45 46 46 46 45 45 44 43 41 39 37 34 30 27 26 28 28 29 29 29 30 30 31 31 31 31 31 29 28 29 30 29 26 25 26 27 29 30 31 32 33 34 34 33 34 33 32 31 28 25 24 21 20 24 26 26 27 26 24 21 18 17 18
45 46 46 45 45 44 44 43 42 40 37 34 29 26 25 25 25 27 29 30 30 30 31 31 30 31 31 29 27 27 27 26 24 24 26 28 30 31 30 32 34 33 31 31 32 33 34 33 31 29 28 27 27 29 29 27 26 23 19 17 16 18 18
44 45 45 45 45 44 44 43 42 40 37 34 30 27 24 22 21 22 25 27 28 28 28 29 30 30 28 26 25 26 25 23 22 24 26 28 30 30 31 33 34 33 32 31 30 30 30 30 29 29 29 29 27 26 22 19 17 14 12 14 14 16 17
43 42 43 44 45 45 44 44 43 40 37 35 31 27 23 21 19 19 21 24 26 27 26 27 29 30 29 28 28 28 27 24 24 25 26 28 28 28 31 33 33 30 31 32 31 31 32 32 32 32 32 31 30 28 25 22 18 11 10 14 15 15 16
40 39 39 42 43 44 43 43 41 39 37 35 31 27 23 20 18 18 19 22 24 25 27 29 31 32 34 34 33 34 32 27 25 26 27 26 24 25 30 32 29 26 27 27 28 29 30 31 31 31 32 32 32 31 31 31 27 18 12 14 17 17 15
37 37 37 38 40 41 42 41 40 38 37 35 32 28 24 20 19 18 19 21 21 20 23 29 33 34 35 35 34 35 34 31 27 26 26 25 23 24 26 24 21 20 21 22 23 26 27 27 28 28 27 28 28 29 28 29 30 26 19 16 16 17 16
34 34 35 35 36 38 40 40 39 38 36 34 32 30 26 22 20 22 20 17 16 18 24 30 33 34 35 34 33 32 32 31 29 27 25 25 25 25 23 18 14 15 17 19 21 22 21 20 19 19 18 20 22 25 25 25 27 28 26 22 18 16 19
31 31 31 31 33 35 37 38 38 37 36 34 31 31 30 25 22 25 24 17 15 21 28 32 32 33 33 31 29 28 28 28 26 25 25 25 25 24 21 18 17 16 16 16 16 15 15 14 14 13 13 15 15 16 19 22 24 25 27 27 23 19 19
28 28 28 27 29 32 35 36 37 36 35 33 31 31 32 29 26 27 27 23 21 24 28 31 32 32 31 29 28 27 26 26 25 25 26 25 23 21 20 19 18 16 15 14 14 14 15 16 16 15 15 15 15 14 14 16 18 20 22 25 25 24 24
25 26 24 23 24 28 32 34 35 35 34 33 31 30 30 31 31 30 30 30 28 26 27 30 32 32 31 30 29 27 26 25 25 25 26 26 24 23 21 19 17 15 14 14 15 17 19 19 18 17 17 16 16 14 12 12 15 19 22 24 26 27 27
21 22 20 19 21 25 29 32 33 34 33 32 31 30 29 29 30 30 31 33 33 30 30 32 33 32 30 29 28 25 24 24 24 25 26 25 24 22 20 18 15 13 14 17 18 18 19 19 18 17 17 15 13 14 14 14 16 19 21 23 25 25 26
21 23 20 18 20 25 28 30 30 31 32 31 29 29 29 29 28 28 29 31 33 33 33 33 32 30 29 28 26 24 23 24 24 24 24 24 23 22 20 18 16 14 15 18 18 18 18 18 16 16 15 12 12 14 15 13 12 13 13 14 16 17 19
23 23 19 16 21 26 28 27 26 27 29 29 29 28 28 27 26 26 27 28 29 30 31 31 30 28 26 26 25 23 23 23 22 21 20 20 20 21 21 20 17 15 16 17 17 16 16 15 14 13 13 11 12 13 13 11 10 11 11 10 11 12 14
25 25 23 22 25 27 24 21 23 26 27 28 29 28 26 26 25 25 25 26 26 25 25 25 24 23 22 22 21 20 20 20 19 19 19 19 17 16 18 20 20 19 18 17 16 15 14 14 13 13 13 12 13 14 13 11 11 11 11 9 10 12 14
27 29 30 30 30 26 20 17 22 28 28 27 25 23 23 23 23 23 23 24 22 19 17 17 17 17 16 16 16 16 16 16 16 15 16 19 19 16 15 17 19 19 18 17 15 14 14 14 14 14 13 14 14 14 13 11 11 11 10 10 11 13 14
25 26 28 29 29 27 23 21 22 23 22 20 19 19 19 19 19 19 20 20 19 17 15 14 14 15 16 15 15 15 16 16 16 15 14 17 19 19 17 16 16 16 15 14 13 14 14 14 14 14 14 14 15 14 13 12 11 11 10 10 12 14 14
23 22 23 24 24 24 23 21 19 18 16 16 16 16 16 17 17 18 18 17 17 16 14 13 14 15 15 15 16 16 16 16 16 16 16 16 16 18 19 19 17 16 16 15 14 14 14 14 14 15 15 15 15 14 13 12 12 11 11 12 13 14 14
20 20 20 20 19 19 19 18 18 18 18 18 17 17 17 17 17 17 17 16 17 17 15 14 16 16 15 16 17 17 16 15 15 16 16 16 15 16 17 18 18 17 16 15 14 14 13 13 14 14 14 14 14 13 13 13 13 13 13 13 13 14 14
17 18 18 17 17 17 18 18 18 18 18 18 18 18 17 17 17 17 17 17 18 18 17 16 17 17 16 17 17 16 15 16 16 16 16 16 16 16 16 17 17 16 14 14 13 13 13 13 13 14 13 13 13 13 13 14 14 14 14 13 13 14 13
16 17 18 18 18 19 19 19 18 18 18 17 17 16 14 14 14 15 17 19 20 18 16 17 17 17 16 17 17 16 15 16 16 16 17 17 17 17 16 16 14 14 14 13 12 12 13 13 13 13 13 13 13 13 14 14 14 14 14 14 13 13 13
13 15 16 17 18 18 18 18 17 17 17 18 18 16 14 13 12 12 15 18 20 18 16 16 16 17 17 17 17 16 16 16 17 17 17 17 17 17 16 15 14 13 13 12 12 12 12 12 12 12 12 13 14 14 14 15 15 14 14 13 13 13 13
8 11 12 14 16 16 16 16 17 17 17 18 19 18 15 14 13 12 13 15 17 17 16 14 14 16 18 17 16 16 17 17 18 18 16 16 16 15 14 14 13 13 12 11 12 12 12 12 12 11 11 13 14 15 15 15 15 14 13 13 13 13 13
Wind_Direction
225 225 224 221 220 219 218 217 216 215 215 214 215 216 218 221 221 222 222 222 223 223 224 227 229 229 229 230 232 232 233 234 235 234 230 227 224 223 226 225 221 233 255 265 269 272 277 280 283 285 288 290 293 293 293 297 300 303 306 309 312 311 309
226 225 224 222 221 220 219 218 217 217 216 216 217 218 220 222 223 224 224 224 225 226 226 229 231 232 232 232 233 233 234 235 236 236 233 231 229 226 227 228 226 230 247 263 269 272 278 281 282 285 287 288 287 288 290 295 300 302 304 307 309 307 304
227 226 225 223 222 221 220 219 218 218 218 218 219 221 222 224 225 226 226 227 228 229 229 231 233 234 233 233 235 236 237 237 237 238 236 235 235 233 233 233 232 234 239 254 264 269 274 280 282 283 285 286 286 289 292 297 301 301 301 305 307 304 301
227 226 225 223 222 221 220 220 219 219 220 220 222 223 223 225 226 228 229 231 232 232 233 234 236 238 236 235 237 238 239 239 239 239 239 239 239 236 237 238 235 236 239 247 259 265 269 275 279 280 283 286 288 290 295 298 300 300 302 305 306 302 301
226 225 225 223 222 222 222 222 221 221 221 222 223 223 224 226 227 229 231 234 235 236 236 238 240 241 241 238 239 240 241 241 242 241 240 241 241 239 239 241 239 237 238 243 250 257 265 270 274 279 283 286 288 291 295 297 297 299 302 306 305 303 303
226 225 225 225 224 224 224 223 222 222 222 222 222 223 224 226 228 230 233 236 238 239 239 240 242 244 243 241 242 243 244 245 245 244 243 243 242 241 240 241 242 238 235 239 244 250 261 267 271 277 282 284 284 286 290 293 295 297 299 300 300 302 304
226 226 226 225 225 225 225 224 222 222 222 222 222 223 224 226 228 230 234 236 239 241 242 243 244 245 245 245 245 246 247 247 247 246 246 246 244 241 239 240 241 238 233 234 240 244 251 260 266 271 274 279 281 279 280 283 286 291 292 288 286 291 299
226 226 226 225 226 226 225 223 222 222 222 222 223 224 225 227 228 230 233 237 240 242 243 245 246 246 247 248 248 249 250 250 249 247 247 246 245 241 239 239 236 232 231 231 235 240 243 251 260 263 266 272 271 269 272 270 270 279 285 286 284 285 294
227 225 224 224 224 224 224 223 223 223 223 223 223 224 226 227 229 231 234 237 240 242 244 246 248 249 249 250 251 251 251 251 250 249 247 246 244 241 238 236 232 227 228 230 233 236 237 242 250 252 254 256 252 255 267 270 270 275 280 286 287 284 290
225 224 224 223 222 222 222 223 224 226 226 226 226 226 226 227 229 232 235 237 239 242 245 247 249 251 252 253 253 252 252 252 251 249 247 246 245 243 238 232 227 224 225 228 230 230 230 236 244 244 243 247 250 256 266 272 272 275 280 288 289 287 292
223 223 223 223 223 223 223 225 227 227 228 228 228 229 228 228 230 232 234 237 240 242 245 248 251 253 254 254 253 253 252 252 252 250 248 245 244 245 242 234 227 226 226 228 232 232 229 234 243 245 243 247 255 258 259 263 268 274 280 285 286 290 296
222 222 222 222 223 224 225 227 228 227 227 226 227 229 230 229 231 233 236 238 241 243 246 249 252 254 255 255 254 254 254 253 252 250 248 246 244 244 244 240 237 234 231 227 230 233 232 235 244 248 244 246 253 255 255 261 267 271 274 275 275 279 281
222 222 222 222 223 224 226 228 228 227 226 225 225 226 230 232 231 233 237 239 241 244 246 248 251 253 255 257 256 255 254 252 251 249 246 246 246 244 243 244 244 244 241 235 233 235 236 239 243 246 246 248 248 248 251 261 268 268 267 265 265 269 272
221 222 222 223 224 225 226 228 229 228 225 223 221 221 228 234 234 235 238 241 243 246 247 248 249 250 252 256 257 256 254 252 250 247 244 243 243 243 244 244 245 247 246 243 240 241 244 247 247 247 252 252 246 247 255 264 270 269 264 262 263 267 269
221 222 223 224 224 224 226 227 229 228 223 221 219 216 222 233 238 239 241 243 245 247 249 250 250 250 251 252 253 255 256 254 251 247 244 242 243 244 244 245 247 248 247 245 245 246 250 254 255 254 256 255 254 262 271 275 275 273 268 266 268 268 265
222 223 223 223 223 223 225 227 228 227 223 220 217 215 219 227 234 238 242 245 248 250 252 252 252 252 251 249 248 250 253 255 253 247 244 243 243 243 243 245 251 253 250 248 250 252 255 258 258 257 260 264 267 273 278 277 271 267 262 259 263 266 263
222 223 223 223 223 223 224 226 227 226 223 221 217 215 218 222 224 229 235 240 244 246 249 250 250 249 247 244 245 247 247 246 243 241 241 243 244 243 243 247 252 255 253 250 250 251 254 256 257 257 260 263 264 265 269 269 259 247 245 249 255 263 264
221 222 223 223 223 223 224 226 226 226 224 222 218 215 217 220 220 222 226 233 238 240 240 243 244 244 242 241 244 248 248 243 238 238 240 243 245 245 246 250 254 256 258 258 256 255 254 254 253 253 253 253 251 249 252 259 258 246 239 248 252 261 270
220 221 222 223 224 225 225 226 226 226 225 223 219 215 216 218 218 220 223 228 235 239 240 242 245 245 245 245 248 251 251 246 239 238 240 242 243 244 247 252 255 256 259 262 262 263 263 261 260 260 258 257 256 253 251 254 257 253 244 249 253 258 267
219 219 221 222 223 224 225 225 225 226 227 225 220 216 216 217 216 218 222 227 231 236 242 247 250 251 251 251 252 253 252 248 241 238 240 239 236 240 248 254 256 255 258 260 263 266 269 269 270 270 267 265 265 263 258 255 255 253 248 248 252 252 252
219 219 221 222 223 223 224 225 225 226 228 227 223 217 216 217 218 220 224 228 229 233 242 249 252 254 256 258 257 254 252 251 246 241 239 236 236 241 249 252 252 254 257 258 260 263 264 262 263 262 261 262 264 266 264 260 256 252 248 245 246 249 252
218 218 219 220 221 222 223 224 224 226 227 228 226 221 218 217 222 227 228 228 229 235 243 249 252 255 258 259 260 257 255 253 250 242 238 239 241 246 249 250 253 257 257 254 253 254 252 250 250 248 249 253 255 256 259 260 257 253 249 247 246 246 251
215 215 216 217 219 221 222 223 223 225 228 229 228 226 223 219 221 227 229 231 234 239 246 249 251 255 258 259 260 260 258 255 249 242 240 241 244 246 248 250 253 255 254 252 250 249 249 249 249 251 254 255 253 250 250 252 252 250 250 252 253 252 251
211 211 211 212 214 218 220 221 223 225 227 228 229 230 228 225 225 228 231 234 238 242 247 250 252 255 259 261 262 262 261 258 252 247 245 244 244 245 245 247 250 250 249 250 248 248 251 251 251 252 255 256 256 254 250 247 250 254 257 261 263 261 258
205 207 208 207 210 214 218 220 222 225 226 228 229 230 231 232 233 233 235 238 241 243 246 250 254 257 260 262 263 263 260 258 255 253 252 249 247 246 244 243 244 244 243 245 246 246 249 251 251 251 252 253 254 255 254 255 258 261 264 267 267 265 261
205 207 208 207 210 214 217 219 222 224 226 227 229 231 235 237 239 239 239 240 242 245 248 252 255 258 259 261 262 261 258 256 256 256 256 253 248 243 239 237 237 236 238 241 245 246 248 251 253 252 251 249 250 253 253 252 252 254 256 257 259 260 259
211 209 206 205 211 214 216 217 219 222 226 227 229 232 235 236 237 238 238 240 242 245 248 252 255 256 257 259 261 260 257 255 254 251 250 247 242 237 235 235 235 236 239 243 245 248 251 253 252 250 247 243 244 249 248 243 240 243 245 243 245 252 256
213 211 209 209 212 213 212 213 217 222 227 229 230 232 233 234 235 233 233 235 238 240 244 248 251 255 256 256 256 254 251 248 246 243 241 240 236 232 234 238 240 241 243 245 247 250 252 250 247 244 243 242 244 246 244 237 235 239 243 241 241 248 255
219 219 219 218 216 212 206 208 221 229 234 236 238 239 238 238 237 235 234 236 237 236 235 238 241 244 245 245 243 242 240 239 237 236 238 240 239 236 235 237 239 240 241 241 241 242 243 243 243 243 242 241 243 245 242 236 232 236 239 236 236 244 250
228 228 227 224 221 219 216 220 230 239 242 243 244 244 241 240 240 238 237 240 241 238 234 233 235 235 232 231 232 233 234 233 233 232 235 238 240 239 238 238 236 236 237 237 234 236 238 239 240 242 241 239 241 243 241 236 231 232 235 233 235 243 246
235 236 234 230 227 229 232 235 239 246 249 248 247 245 241 240 239 238 238 238 237 233 229 227 230 230 226 226 230 233 234 234 234 236 237 237 237 237 238 239 237 235 235 234 231 233 236 236 237 240 239 238 240 242 241 238 234 231 233 234 234 239 244
234 235 235 234 232 235 242 244 244 246 249 248 246 245 244 242 238 236 237 235 230 228 227 226 228 230 229 229 231 233 233 234 235 236 236 235 236 236 235 235 236 235 232 231 231 233 234 235 235 237 238 237 237 239 240 239 236 233 232 235 237 239 241
229 229 231 234 237 241 247 250 250 249 250 249 248 246 244 241 236 232 229 226 225 229 232 230 230 231 229 230 233 235 235 234 235 236 237 237 237 239 238 237 238 236 232 229 231 234 236 237 236 236 237 237 236 236 238 238 237 236 234 234 238 240 241
231 231 232 236 241 244 246 248 249 250 251 253 253 250 243 237 234 231 227 225 226 231 234 232 231 231 231 234 238 239 238 237 237 237 239 241 242 243 244 242 237 232 231 231 232 233 234 236 235 233 234 236 236 235 236 237 236 234 234 234 238 242 242
231 235 237 239 241 242 242 243 245 248 251 252 251 246 238 231 229 227 224 224 226 230 234 233 232 235 238 238 237 236 237 242 243 240 239 242 244 244 242 238 233 230 231 231 232 232 233 233 233 231 231 235 237 235 235 237 235 232 232 235 238 242 244
237 241 243 244 245 245 247 248 250 251 250 249 248 244 234 226 226 225 223 224 226 228 232 234 234 239 243 241 237 237 239 241 242 240 238 240 242 241 238 236 233 232 232 231 232 235 235 232 232 232 230 233 238 236 234 236 237 235 234 235 236 240 245